Weather History for Georgetown, TX

Change the Weather History Date:

Saturday, August 9, 2014

  Actual Average Record
Temperature  
Mean Temperature 88 °F -  
Max Temperature 98 °F 92 °F 102 °F (2011)
Min Temperature 78 °F 71 °F 69 °F (2005)
Cooling Degree Days 23    
Growing Degree Days 38 (Base 50)    
Moisture  
Dew Point 69 °F    
Average Humidity 59    
Maximum Humidity 83    
Minimum Humidity 30    
Precipitation  
Precipitation 0.00 in - - ()
Sea Level Pressure  
Sea Level Pressure 29.98 in    
Wind  
Wind Speed 9 mph (South)    
Max Wind Speed 15 mph    
Max Gust Speed 22 mph    
Visibility 10 miles    
Events      
Averages and records for this station are not official NWS values.
T = Trace of Precipitation, MM = Missing Value Source: NWS Daily Summary

Daily Weather History Graph

Daily Weather History Graph

Search for Another Location

Airport:

Trip Planner

Search our weather history database for the weather conditions in past years. The results will help you decide how hot, cold, wet, or windy it might be!

Date:

Astronomy

Aug. 09, 2014 Rise Set
Actual Time 6:53 AM CDT 8:18 PM CDT
Civil Twilight 6:27 AM CDT 8:44 PM CDT
Nautical Twilight 5:57 AM CDT 9:14 PM CDT
Astronomical Twilight 5:25 AM CDT 9:46 PM CDT
Moon 7:22 PM CDT (8/9) 5:35 AM CDT (8/9)
Length of Visible Light 14h 16m
Length of Day
13h 24m
Waxing Gibbous, 98% of the Moon is Illuminated
Aug 9
Waxing Gibbous
Aug 10
Full
Aug 17
Last Quarter
Aug 25
New
Sep 2
First Quarter

Hourly Weather History & Observations

Time (CDT) Temp. Heat Index Dew Point Humidity Pressure Visibility Wind Dir Wind Speed Gust Speed Precip Events Conditions
12:15 AM 86.0 °F 89.4 °F 68.0 °F 55% 29.97 in 10.0 mi South 10.4 mph - N/A   Clear
12:35 AM 86.0 °F 89.4 °F 68.0 °F 55% 29.97 in 10.0 mi SSE 8.1 mph - N/A   Clear
12:55 AM 84.2 °F 87.3 °F 68.0 °F 58% 29.98 in 10.0 mi South 9.2 mph - N/A   Clear
1:15 AM 84.2 °F 88.4 °F 69.8 °F 62% 29.98 in 10.0 mi South 9.2 mph 17.3 mph N/A   Clear
1:35 AM 84.2 °F 88.4 °F 69.8 °F 62% 29.98 in 10.0 mi South 11.5 mph 17.3 mph N/A   Clear
1:55 AM 84.2 °F 88.4 °F 69.8 °F 62% 29.98 in 10.0 mi South 12.7 mph - N/A   Clear
2:15 AM 82.4 °F 87.2 °F 71.6 °F 70% 29.98 in 10.0 mi South 8.1 mph - N/A   Clear
2:35 AM 82.4 °F 87.2 °F 71.6 °F 70% 29.98 in 10.0 mi South 12.7 mph - N/A   Clear
2:55 AM 82.4 °F 87.2 °F 71.6 °F 70% 29.98 in 10.0 mi South 11.5 mph 16.1 mph N/A   Clear
3:15 AM 80.6 °F 84.6 °F 71.6 °F 74% 29.98 in 10.0 mi South 11.5 mph - N/A   Clear
3:35 AM 80.6 °F 84.6 °F 71.6 °F 74% 29.98 in 10.0 mi South 12.7 mph - N/A   Clear
3:55 AM 80.6 °F 85.4 °F 73.4 °F 79% 29.97 in 10.0 mi South 13.8 mph - N/A   Clear
4:15 AM 80.6 °F 84.6 °F 71.6 °F 74% 29.97 in 10.0 mi SSW 10.4 mph - N/A   Clear
4:35 AM 80.6 °F 85.4 °F 73.4 °F 79% 29.98 in 10.0 mi South 10.4 mph - N/A   Clear
4:55 AM 78.8 °F - 73.4 °F 83% 29.98 in 10.0 mi South 8.1 mph - N/A   Clear
5:15 AM 78.8 °F - 73.4 °F 83% 29.99 in 10.0 mi South 9.2 mph - N/A   Clear
5:35 AM 78.8 °F - 73.4 °F 83% 29.98 in 10.0 mi SSW 8.1 mph - N/A   Clear
5:55 AM 78.8 °F - 73.4 °F 83% 29.99 in 10.0 mi SSW 8.1 mph - N/A   Clear
6:15 AM 78.8 °F - 73.4 °F 83% 29.99 in 10.0 mi SSW 4.6 mph - N/A   Clear
6:35 AM 78.8 °F - 73.4 °F 83% 30.00 in 10.0 mi South 5.8 mph - N/A   Clear
8:51 AM 82.4 °F 88.2 °F 73.4 °F 74% 30.03 in 10.0 mi South 11.5 mph - N/A   Clear
9:50 AM 84.2 °F 89.6 °F 71.6 °F 66% 30.04 in 10.0 mi North - - N/A   Clear
12:50 PM 93.2 °F 94.9 °F 64.4 °F 38% 30.02 in 10.0 mi South 10.4 mph 17.3 mph N/A   Clear
1:50 PM 95.0 °F 96.0 °F 62.6 °F 34% 30.00 in 10.0 mi South 15.0 mph - N/A   Clear
2:50 PM 96.8 °F 98.0 °F 62.6 °F 32% 29.97 in 10.0 mi SE 5.8 mph - N/A   Clear
3:50 PM 96.8 °F 98.0 °F 62.6 °F 32% 29.95 in 10.0 mi SSE 9.2 mph - N/A   Clear
4:52 PM 98.6 °F 100.0 °F 62.6 °F 30% 29.92 in 10.0 mi SSW 8.1 mph 21.9 mph N/A   Clear
5:50 PM 98.6 °F 100.0 °F 62.6 °F 30% 29.90 in 10.0 mi South 11.5 mph 16.1 mph N/A   Scattered Clouds
6:50 PM 96.8 °F 97.1 °F 60.8 °F 30% 29.90 in 10.0 mi South 6.9 mph - N/A   Clear
7:51 PM 95.0 °F 96.0 °F 62.6 °F 34% 29.91 in 10.0 mi SE 5.8 mph - N/A   Clear
8:50 PM 91.4 °F 92.1 °F 62.6 °F 38% 29.93 in 10.0 mi Calm Calm - N/A   Clear
9:50 PM 89.6 °F 90.1 °F 62.6 °F 40% 29.96 in 10.0 mi Calm Calm - N/A   Clear
10:35 PM 87.8 °F 91.4 °F 68.0 °F 52% 29.99 in 10.0 mi SE 6.9 mph - N/A   Clear
10:55 PM 87.8 °F 91.4 °F 68.0 °F 52% 30.00 in 10.0 mi SSE 5.8 mph - N/A   Clear
11:15 PM 87.8 °F 92.6 °F 69.8 °F 55% 30.00 in 10.0 mi SSE 6.9 mph - N/A   Clear
11:35 PM 86.0 °F 90.4 °F 69.8 °F 58% 30.00 in 10.0 mi SSE 6.9 mph - N/A   Clear
11:55 PM 84.2 °F 88.4 °F 69.8 °F 62% 30.01 in 10.0 mi SSE 4.6 mph - N/A   Clear